Theta_e
362 363 364 363 361 360 357 355 358 365 362 357 359 357 356 356 357 355 354 353 350 350 349 349 348 350 345 344 345 344 341 340 336 339 347 346 344 345 345 347 344 344 338
363 360 358 342 356 352 353 355 357 359 361 357 358 358 357 356 355 354 351 350 349 349 348 347 347 350 348 349 347 345 344 344 341 337 344 344 343 345 345 344 343 342 339
342 341 335 336 333 334 342 349 355 356 357 357 358 356 356 356 354 353 351 352 352 350 349 348 346 347 347 345 346 345 345 346 346 342 341 345 344 342 336 337 336 336 335
339 338 334 334 336 337 342 343 349 351 353 355 355 356 355 355 356 352 352 351 352 351 352 349 346 346 347 345 346 345 345 343 343 342 342 342 341 340 335 329 327 332 331
340 336 335 334 333 334 335 341 347 351 352 354 353 356 355 355 350 353 352 351 351 349 350 350 346 348 349 348 347 345 345 343 342 339 339 338 338 335 333 333 330 329 329
340 338 336 335 333 331 333 340 348 350 352 353 354 353 352 350 338 340 349 350 351 351 350 351 351 345 343 338 340 339 345 343 341 339 338 336 336 337 337 334 329 323 321
340 344 338 338 338 339 340 343 346 350 355 352 351 349 350 353 333 331 338 352 351 351 351 349 348 345 342 345 335 335 335 334 337 341 338 338 337 339 337 333 327 326 325
341 343 344 342 341 340 342 343 345 349 349 346 347 347 352 352 328 326 331 351 351 351 352 351 348 347 349 345 346 339 340 340 337 336 338 343 344 344 340 333 329 329 330
340 341 342 344 343 340 338 341 342 343 341 343 349 354 352 349 324 322 330 349 349 349 350 351 350 347 338 330 344 343 342 341 330 328 326 330 333 336 338 335 328 325 321
334 336 343 344 342 342 344 341 340 342 341 343 343 350 344 350 328 320 326 346 346 346 350 350 333 343 329 322 341 343 340 341 341 335 332 329 331 334 329 336 331 325 323
335 335 334 337 340 344 343 345 342 342 342 346 347 349 349 347 349 317 318 344 346 346 344 344 346 325 319 314 320 345 340 341 338 341 339 339 336 339 339 340 334 331 326
336 334 333 333 334 337 340 342 344 345 343 342 340 338 341 347 330 319 312 315 332 343 344 346 344 315 314 314 316 323 318 325 342 339 338 336 335 335 336 338 340 335 334
334 336 336 332 330 336 337 339 337 342 341 341 339 339 339 343 346 320 314 314 316 329 341 334 316 314 309 311 313 316 315 335 339 337 336 335 338 338 339 338 340 339 339
332 333 337 339 332 335 335 333 332 333 334 333 332 332 335 337 333 326 330 333 318 325 328 335 330 322 321 325 324 319 332 338 338 336 335 338 339 337 337 338 335 336 334
330 330 333 331 332 336 336 334 332 336 330 331 330 331 330 330 329 309 309 319 320 314 313 331 332 333 333 331 331 333 333 335 336 336 335 334 334 334 334 336 335 335 331
327 325 325 324 323 325 334 333 317 315 310 305 301 310 325 313 305 299 297 296 297 299 318 327 328 333 332 333 333 332 332 332 335 331 331 331 331 331 332 332 333 331 328
328 327 324 323 325 327 327 328 329 326 307 303 299 299 297 301 297 296 295 295 295 299 317 322 326 329 330 332 334 334 331 333 330 329 328 328 331 329 328 330 328 327 326
328 318 324 326 323 322 323 327 327 328 326 327 304 304 298 296 296 294 295 294 309 304 318 322 324 327 328 330 332 330 331 329 328 328 327 328 330 327 327 326 325 325 323
324 324 325 324 323 321 322 323 326 328 327 328 330 309 307 301 297 295 293 306 320 323 323 322 325 328 329 330 332 328 329 327 326 327 326 325 324 323 321 321 320 315 317
324 323 319 324 323 323 323 326 325 331 331 327 326 325 322 319 319 319 316 317 321 322 324 326 327 328 329 329 327 325 323 324 324 324 324 324 324 324 321 320 319 318 319
320 322 323 323 323 323 325 326 332 331 330 330 327 316 302 320 318 318 318 318 318 319 322 325 324 323 325 325 325 324 323 323 323 322 322 322 321 319 322 321 320 319 319
320 320 321 322 323 324 323 324 326 328 326 325 322 317 304 320 317 316 318 318 319 319 319 319 319 320 321 320 321 321 321 319 320 320 319 319 319 318 317 317 317 317 316
319 320 320 320 321 319 323 324 322 325 326 323 322 320 319 318 315 313 314 315 318 320 319 319 319 319 320 320 321 320 319 318 319 319 318 318 317 317 317 316 316 316 314
317 319 317 320 321 321 321 321 322 316 322 322 320 318 316 316 313 312 313 314 316 317 319 319 318 319 319 320 320 321 321 321 320 320 320 318 317 313 316 315 313 312 307
315 318 316 317 316 316 317 321 323 322 321 321 320 319 317 315 313 312 313 317 319 318 317 318 320 320 320 319 320 314 298 296 315 308 316 315 312 313 312 311 310 310 308
318 318 318 318 316 317 316 319 320 323 323 323 323 320 317 315 314 312 313 313 314 315 316 316 316 314 316 317 307 293 288 289 298 294 316 315 312 310 311 310 310 308 306
Wind_Speed
23 20 15 13 16 12 9 10 5 4 6 9 7 7 8 8 7 6 6 5 7 5 6 6 8 7 5 6 5 6 6 5 7 4 3 3 4 4 4 3 6 5 5
19 17 9 14 12 7 10 6 7 4 5 7 6 6 9 9 10 8 9 6 7 7 6 6 7 6 7 5 6 8 8 8 5 6 3 4 4 5 4 5 4 3 5
8 12 12 3 6 21 25 5 3 5 7 6 6 8 7 7 10 9 7 6 5 6 6 6 7 6 6 5 6 5 6 4 5 4 3 3 3 5 4 4 2 3 3
6 10 12 10 12 18 11 15 7 10 7 7 7 8 9 9 8 11 10 7 6 5 6 6 8 9 7 7 6 6 5 5 5 5 4 3 4 5 4 3 2 1 2
3 5 1 6 14 20 25 24 19 12 9 9 10 8 9 8 8 11 11 10 9 9 8 7 7 7 11 7 5 5 6 5 4 5 4 3 3 4 7 5 4 3 1
2 4 5 8 8 12 11 11 7 9 10 9 9 9 8 7 11 14 13 10 9 9 7 6 6 6 9 12 11 8 5 6 6 4 2 4 8 7 6 6 4 5 3
3 2 6 4 3 5 4 5 6 7 5 7 7 9 9 9 7 14 16 10 9 9 9 8 7 8 11 7 8 7 7 7 6 3 5 6 3 7 7 6 5 5 3
4 4 3 7 7 7 5 6 5 3 4 5 7 8 6 8 12 13 13 7 6 6 7 8 8 8 6 8 8 8 8 8 8 6 7 5 4 5 8 6 6 4 1
8 7 6 5 4 2 3 6 4 5 3 2 5 4 6 12 11 12 9 6 8 9 9 9 9 10 9 10 6 9 9 8 4 9 8 6 3 10 9 8 6 6 2
9 11 9 6 3 3 1 6 4 3 4 4 4 6 9 9 11 14 10 7 10 9 9 10 11 11 12 11 8 7 8 8 7 5 2 2 2 3 9 9 9 8 4
7 5 6 7 8 6 2 1 0 1 1 3 5 6 7 7 8 13 14 8 8 7 9 9 10 16 15 14 13 9 9 7 8 8 7 6 6 6 6 6 10 9 8
5 5 6 4 5 6 7 7 5 2 2 5 5 5 4 7 9 8 12 14 10 7 9 5 3 3 16 17 12 12 10 8 6 6 5 7 8 8 8 9 7 9 9
8 6 5 3 5 4 4 4 4 4 6 6 7 6 5 7 9 18 18 17 16 10 9 7 2 4 4 5 10 13 8 6 7 7 7 8 5 6 7 8 8 8 5
8 8 6 3 2 2 3 5 6 6 6 6 6 5 5 5 6 6 7 1 8 6 8 9 10 9 7 5 4 6 8 9 9 8 8 7 6 5 4 6 5 6 4
8 7 6 4 5 6 3 2 1 3 2 3 5 5 5 6 2 1 3 4 4 3 6 4 3 7 7 6 7 8 8 8 9 8 7 6 7 7 6 6 5 5 4
8 7 7 6 7 6 3 5 10 10 7 5 6 3 6 6 9 8 5 8 7 5 4 5 6 7 7 7 8 8 9 13 9 5 4 5 7 10 8 7 6 5 5
5 8 6 5 6 5 5 4 4 3 8 9 8 7 10 11 12 13 12 9 9 8 5 7 7 7 7 8 8 9 8 8 4 3 3 5 7 5 5 6 4 4 3
8 13 7 4 6 7 7 4 4 3 4 2 6 7 9 10 11 10 14 7 5 5 6 7 7 8 8 7 7 7 8 6 6 5 5 3 4 4 6 5 5 5 5
9 7 5 5 5 6 7 7 5 2 1 3 2 3 7 2 8 8 3 4 6 6 4 6 6 6 6 7 6 4 7 7 7 8 7 7 4 7 8 6 4 6 5
8 10 7 6 6 6 7 3 4 2 2 4 4 5 6 7 6 6 3 5 5 4 4 5 4 5 6 5 6 7 7 9 10 8 7 6 5 6 9 7 7 7 4
8 8 4 9 8 8 9 7 2 3 2 2 4 5 3 3 4 4 4 5 5 5 5 5 2 2 5 7 7 8 10 9 8 9 7 7 6 5 6 7 7 6 4
8 8 8 7 9 7 8 8 7 6 5 4 5 3 3 3 3 3 4 4 5 5 5 4 5 4 5 4 6 9 8 10 9 7 7 7 7 6 4 4 5 4 5
7 4 6 7 7 9 7 6 6 6 4 5 4 4 3 3 3 2 4 5 5 5 5 5 7 7 7 8 8 8 8 8 7 7 8 7 5 5 4 4 4 4 4
8 7 4 2 2 5 4 6 4 2 4 2 1 2 1 1 1 3 3 2 3 4 5 5 6 7 7 7 6 6 6 6 4 4 5 5 5 5 5 5 5 5 7
9 5 6 1 2 7 3 3 3 3 2 3 3 2 1 1 1 2 0 1 2 2 4 3 2 5 5 6 6 6 4 6 5 7 4 5 6 5 4 3 4 6 7
11 5 4 4 1 6 3 3 3 3 4 4 2 3 2 1 1 2 1 2 3 3 3 2 3 4 3 8 8 6 6 8 6 8 2 5 4 2 3 3 6 5 7
Wind_Direction
190 198 196 199 196 193 191 173 203 155 142 168 177 166 165 165 177 171 205 239 182 205 251 210 205 208 201 200 203 205 216 214 239 264 194 182 190 198 179 161 153 157 137
188 192 169 6 211 325 165 154 160 176 166 178 181 198 181 174 179 189 190 217 189 197 220 257 234 215 209 201 197 213 211 219 220 241 180 184 188 191 196 140 88 50 112
75 98 104 161 122 47 8 306 160 200 179 197 190 198 201 194 179 191 185 205 209 200 201 224 256 253 205 213 220 232 224 217 211 220 233 178 166 134 87 81 111 107 118
89 121 122 126 142 133 182 292 320 250 214 201 215 217 195 218 186 185 183 198 211 221 214 220 236 235 231 211 220 223 208 218 223 223 217 199 182 150 138 145 170 171 159
25 300 184 161 143 164 171 199 207 216 214 202 218 209 221 212 213 178 189 193 206 206 212 209 230 238 206 195 192 222 227 222 234 222 204 181 176 168 184 167 182 152 136
76 183 209 194 187 188 214 224 232 215 179 199 209 213 226 226 235 184 185 188 207 211 200 187 229 206 185 187 196 183 199 211 239 246 241 221 210 199 187 175 141 181 194
302 230 168 209 208 232 272 305 239 211 167 201 220 220 221 229 224 191 186 196 200 204 203 186 216 227 209 200 206 195 197 213 209 260 259 263 269 180 171 164 170 180 193
61 35 95 184 203 208 232 261 252 292 210 203 232 238 231 232 208 207 185 197 217 221 217 204 209 236 217 219 178 196 214 210 209 212 218 254 235 175 166 171 179 165 127
42 39 48 34 22 108 22 340 340 191 268 260 204 250 253 255 224 217 194 195 220 226 224 218 207 224 212 201 205 198 213 221 197 151 123 98 104 146 151 138 164 163 149
3 13 6 32 38 36 125 193 208 218 222 243 261 256 259 257 224 227 222 215 221 225 225 226 219 209 205 192 208 207 208 215 177 155 144 116 176 166 171 163 156 172 140
30 11 22 5 15 26 56 76 294 266 212 243 267 263 276 274 272 215 222 245 240 233 231 225 219 206 200 189 200 217 214 223 198 185 192 188 179 185 189 191 174 178 177
52 37 24 12 32 -0 0 358 348 310 289 284 281 285 278 268 262 217 217 222 258 264 270 264 311 283 212 199 191 211 219 201 193 199 204 205 197 188 188 190 193 205 190
351 6 16 358 42 8 342 311 301 294 246 262 236 228 245 241 224 224 210 215 227 242 253 265 74 346 206 287 224 200 186 202 198 193 206 222 201 193 176 183 182 197 219
346 326 322 296 131 236 312 10 353 347 352 341 326 339 321 317 27 15 20 281 244 282 274 278 279 285 186 225 223 234 208 210 203 207 210 211 191 190 188 161 176 176 177
338 311 309 353 230 170 190 240 285 298 280 281 296 297 302 296 6 6 24 329 339 4 309 282 266 251 239 218 226 216 208 222 207 219 209 201 184 179 180 171 173 158 170
324 344 333 328 320 293 205 186 221 222 201 235 258 252 304 311 308 315 245 208 234 272 240 233 227 234 225 230 226 211 203 215 196 202 170 168 187 205 177 184 178 170 175
325 301 308 291 294 316 312 304 49 241 232 225 226 223 224 255 287 290 282 277 236 194 221 235 245 240 232 230 228 217 201 211 176 189 200 190 184 197 180 181 176 149 150
309 280 265 322 337 310 304 338 344 302 323 323 208 216 225 249 272 284 300 310 272 206 236 230 235 232 230 222 220 209 200 183 164 149 123 126 142 137 146 126 123 137 147
298 304 329 311 298 282 275 260 275 267 107 318 341 180 227 296 283 292 316 261 291 268 224 240 235 236 218 222 212 180 192 157 141 122 134 121 116 111 102 91 87 95 114
298 284 252 268 279 277 272 194 226 234 4 307 330 21 13 350 353 342 306 302 305 298 287 258 253 241 233 191 160 140 129 120 119 124 122 117 128 137 124 137 142 139 144
312 309 359 309 334 10 15 23 46 30 348 348 63 78 54 30 344 345 351 2 346 330 290 236 195 213 181 155 156 150 141 130 132 124 134 124 109 112 119 153 139 155 165
293 349 332 350 344 355 0 10 7 15 359 25 99 104 133 36 360 9 1 2 357 5 6 22 75 69 73 64 123 117 116 112 108 113 112 114 113 116 124 102 106 130 146
301 353 337 342 355 334 350 13 5 16 359 46 10 9 346 27 7 19 26 3 357 19 20 34 53 61 61 67 66 74 92 102 101 115 120 120 120 124 134 144 170 185 174
296 286 289 243 341 325 356 348 348 40 337 45 34 35 44 45 44 36 33 2 25 34 20 45 54 67 65 66 68 76 84 91 94 104 115 132 153 173 172 176 178 166 124
281 285 303 45 325 301 323 42 330 274 278 228 182 163 82 29 342 98 126 338 333 159 86 85 97 119 120 135 120 112 108 138 160 165 164 139 138 162 150 138 134 114 118
295 244 260 185 236 271 274 150 173 203 238 275 275 156 160 159 150 146 179 71 11 29 61 85 106 94 145 115 95 109 106 101 101 77 131 116 121 126 131 108 120 110 129